{"data":{"norad_id":57981,"intl_designator":"2023-151T","name":"STARLINK-30510","alt_names":[],"object_type":"PAYLOAD","status":"ACTIVE","operator":null,"country":"US","launch_date":"2023-09-30","launch_site_code":"AFETR","launch_vehicle":null,"mission":null,"orbit_class":"UNKNOWN","rcs_meters":null,"size_class":null,"mass_kg":null,"dimensions":null,"purposes":["comms"],"wikipedia_slug":null,"has_3d_model":false,"image_url":null,"decayed_at":null,"tle_current":{"epoch":"2026-05-24T17:20:32.808480Z","epoch_age_seconds":92377,"freshness":"FRESH","line1":"1 57981U 23151T   26144.72260195  .00001205  00000+0  53328-4 0  9993","line2":"2 57981  43.0014 284.5207 0001923 260.7747  99.2887 15.27578616147182","mean_motion":15.27578616,"eccentricity":0.0001923,"inclination_deg":43.0014,"raan_deg":284.5207,"arg_perigee_deg":260.7747,"mean_anomaly_deg":99.2887,"bstar":5.3328e-5,"rev_number":14718,"period_min":94.266834120176,"perigee_km":481.73383335348,"apogee_km":484.37264711987,"semimajor_km":6861.1902402367,"source":"CELESTRAK","updated_at":"2026-05-25T13:38:18.488251Z"}}}